QPF
0.00 0.00 0.00 0.00 0.00 0.00 0.00 0.00 0.00 0.00 0.00 0.00 0.00 0.00 0.00 0.00 0.00 0.00 0.00 0.00 0.00 0.00 0.00 0.00 0.00 0.00 0.00 0.00 0.00 0.00 0.00 0.00 0.00 0.00 0.00 0.00 0.00 0.00 0.00 0.00 0.00 0.00 0.00 0.00
0.00 0.00 0.00 0.00 0.00 0.00 0.00 0.00 0.00 0.00 0.00 0.00 0.00 0.00 0.00 0.00 0.00 0.00 0.00 0.00 0.00 0.00 0.00 0.00 0.00 0.00 0.00 0.00 0.00 0.00 0.00 0.00 0.00 0.00 0.00 0.00 0.00 0.00 0.00 0.00 0.00 0.00 0.00 0.00
0.00 0.00 0.00 0.00 0.00 0.00 0.00 0.00 0.00 0.00 0.00 0.00 0.00 0.00 0.00 0.00 0.00 0.00 0.00 0.00 0.00 0.00 0.00 0.00 0.00 0.00 0.00 0.00 0.00 0.00 0.00 0.00 0.00 0.00 0.00 0.00 0.00 0.00 0.00 0.00 0.00 0.00 0.00 0.00
0.00 0.00 0.00 0.00 0.00 0.00 0.00 0.00 0.00 0.00 0.00 0.00 0.00 0.00 0.00 0.00 0.00 0.00 0.00 0.00 0.00 0.00 0.00 0.00 0.00 0.00 0.00 0.00 0.00 0.00 0.00 0.00 0.00 0.00 0.00 0.00 0.00 0.00 0.00 0.00 0.00 0.00 0.00 0.00
0.00 0.00 0.00 0.00 0.00 0.00 0.00 0.00 0.00 0.00 0.00 0.00 0.00 0.00 0.00 0.00 0.00 0.00 0.00 0.00 0.00 0.00 0.00 0.00 0.00 0.00 0.00 0.00 0.00 0.00 0.00 0.00 0.00 0.00 0.00 0.00 0.00 0.00 0.00 0.00 0.00 0.00 0.00 0.00
0.00 0.00 0.00 0.00 0.00 0.00 0.00 0.00 0.00 0.00 0.00 0.00 0.00 0.00 0.00 0.00 0.00 0.00 0.00 0.00 0.00 0.00 0.00 0.00 0.00 0.00 0.00 0.00 0.00 0.00 0.00 0.00 0.00 0.00 0.00 0.00 0.00 0.00 0.00 0.00 0.00 0.00 0.00 0.00
0.00 0.00 0.00 0.00 0.00 0.00 0.00 0.00 0.00 0.00 0.00 0.00 0.00 0.00 0.00 0.00 0.00 0.00 0.00 0.00 0.00 0.00 0.00 0.00 0.00 0.00 0.00 0.00 0.00 0.00 0.00 0.00 0.00 0.00 0.00 0.00 0.00 0.00 0.00 0.00 0.00 0.00 0.00 0.00
0.00 0.00 0.00 0.00 0.00 0.00 0.00 0.00 0.00 0.00 0.00 0.00 0.00 0.00 0.00 0.00 0.00 0.00 0.00 0.00 0.00 0.00 0.00 0.00 0.00 0.00 0.00 0.00 0.00 0.00 0.00 0.00 0.00 0.00 0.00 0.00 0.00 0.00 0.00 0.00 0.00 0.00 0.00 0.00
0.00 0.00 0.00 0.00 0.00 0.00 0.00 0.00 0.00 0.00 0.00 0.00 0.00 0.00 0.00 0.00 0.00 0.00 0.00 0.00 0.00 0.00 0.00 0.00 0.00 0.00 0.00 0.00 0.00 0.00 0.00 0.00 0.00 0.00 0.00 0.00 0.00 0.00 0.00 0.00 0.00 0.00 0.00 0.00
0.00 0.00 0.00 0.00 0.00 0.00 0.00 0.00 0.00 0.00 0.00 0.00 0.00 0.00 0.00 0.00 0.00 0.00 0.00 0.00 0.00 0.00 0.00 0.00 0.00 0.00 0.00 0.00 0.00 0.00 0.00 0.00 0.00 0.00 0.00 0.00 0.00 0.00 0.00 0.00 0.00 0.00 0.00 0.00
0.00 0.00 0.00 0.00 0.00 0.00 0.00 0.00 0.00 0.00 0.00 0.00 0.00 0.00 0.00 0.00 0.00 0.00 0.00 0.00 0.00 0.00 0.00 0.00 0.00 0.00 0.00 0.00 0.00 0.00 0.00 0.00 0.00 0.00 0.00 0.00 0.00 0.00 0.00 0.00 0.00 0.00 0.00 0.00
0.00 0.00 0.00 0.00 0.00 0.00 0.00 0.00 0.00 0.00 0.00 0.00 0.00 0.00 0.00 0.00 0.00 0.00 0.00 0.00 0.00 0.00 0.00 0.00 0.00 0.00 0.00 0.00 0.00 0.00 0.00 0.00 0.00 0.00 0.00 0.00 0.00 0.00 0.00 0.00 0.00 0.00 0.00 0.00
0.00 0.00 0.00 0.00 0.00 0.00 0.00 0.00 0.00 0.00 0.00 0.00 0.00 0.00 0.00 0.00 0.00 0.00 0.00 0.00 0.00 0.00 0.00 0.00 0.00 0.00 0.00 0.00 0.00 0.00 0.00 0.00 0.00 0.00 0.00 0.00 0.00 0.00 0.00 0.00 0.00 0.00 0.00 0.00
0.00 0.00 0.00 0.00 0.00 0.00 0.00 0.00 0.00 0.00 0.00 0.00 0.00 0.00 0.00 0.00 0.00 0.00 0.00 0.00 0.00 0.00 0.00 0.00 0.00 0.00 0.00 0.00 0.00 0.00 0.00 0.00 0.00 0.00 0.00 0.00 0.00 0.00 0.00 0.00 0.00 0.00 0.00 0.00
0.00 0.00 0.00 0.00 0.00 0.00 0.00 0.00 0.00 0.00 0.00 0.00 0.00 0.00 0.00 0.00 0.00 0.00 0.00 0.00 0.00 0.00 0.00 0.00 0.00 0.00 0.00 0.00 0.00 0.00 0.00 0.00 0.00 0.00 0.00 0.00 0.00 0.00 0.00 0.00 0.00 0.00 0.00 0.00
0.00 0.00 0.00 0.00 0.00 0.00 0.00 0.00 0.00 0.00 0.00 0.00 0.00 0.00 0.00 0.00 0.00 0.00 0.00 0.00 0.00 0.00 0.00 0.00 0.00 0.00 0.00 0.00 0.00 0.00 0.00 0.00 0.00 0.00 0.00 0.00 0.00 0.00 0.00 0.00 0.00 0.00 0.00 0.00
0.00 0.00 0.00 0.00 0.00 0.00 0.00 0.00 0.00 0.00 0.00 0.00 0.00 0.00 0.00 0.00 0.00 0.00 0.00 0.00 0.00 0.00 0.00 0.00 0.00 0.00 0.00 0.00 0.00 0.00 0.00 0.00 0.00 0.00 0.00 0.00 0.00 0.00 0.00 0.00 0.00 0.00 0.00 0.00
0.00 0.00 0.00 0.00 0.00 0.00 0.00 0.00 0.00 0.00 0.00 0.00 0.00 0.00 0.00 0.00 0.00 0.00 0.00 0.00 0.00 0.00 0.00 0.00 0.00 0.00 0.00 0.00 0.00 0.00 0.00 0.00 0.00 0.00 0.00 0.00 0.00 0.00 0.00 0.00 0.00 0.00 0.00 0.00
0.00 0.00 0.00 0.00 0.00 0.00 0.00 0.00 0.00 0.00 0.00 0.00 0.00 0.00 0.00 0.00 0.00 0.00 0.00 0.00 0.00 0.00 0.00 0.00 0.00 0.00 0.00 0.00 0.00 0.00 0.00 0.00 0.00 0.00 0.00 0.00 0.00 0.00 0.00 0.00 0.00 0.00 0.00 0.00
0.00 0.00 0.00 0.00 0.00 0.00 0.00 0.00 0.00 0.00 0.00 0.00 0.00 0.00 0.00 0.00 0.00 0.00 0.00 0.00 0.00 0.00 0.00 0.00 0.00 0.00 0.00 0.00 0.00 0.00 0.00 0.00 0.00 0.00 0.00 0.00 0.00 0.00 0.00 0.00 0.00 0.00 0.00 0.00
0.03 0.01 0.01 0.00 0.00 0.00 0.00 0.00 0.00 0.00 0.00 0.00 0.00 0.00 0.00 0.00 0.00 0.00 0.00 0.00 0.00 0.00 0.00 0.00 0.00 0.00 0.00 0.00 0.00 0.00 0.00 0.00 0.00 0.00 0.00 0.00 0.00 0.00 0.00 0.00 0.00 0.00 0.00 0.00
0.05 0.14 0.06 0.00 0.01 0.00 0.00 0.00 0.00 0.00 0.00 0.00 0.00 0.00 0.00 0.00 0.00 0.00 0.00 0.00 0.00 0.00 0.00 0.00 0.00 0.00 0.00 0.00 0.00 0.00 0.00 0.00 0.00 0.00 0.00 0.00 0.00 0.00 0.00 0.00 0.00 0.00 0.00 0.00
0.06 0.09 0.08 0.00 0.01 0.02 0.00 0.04 0.02 0.00 0.00 0.00 0.00 0.00 0.00 0.00 0.00 0.00 0.00 0.00 0.00 0.00 0.00 0.00 0.00 0.00 0.00 0.00 0.00 0.00 0.00 0.00 0.00 0.00 0.00 0.00 0.00 0.00 0.00 0.00 0.00 0.00 0.00 0.00
0.06 0.05 0.04 0.03 0.03 0.04 0.03 0.07 0.09 0.03 0.00 0.00 0.00 0.00 0.00 0.00 0.00 0.00 0.00 0.00 0.00 0.00 0.00 0.00 0.00 0.00 0.00 0.00 0.00 0.00 0.00 0.00 0.00 0.00 0.00 0.00 0.00 0.00 0.00 0.00 0.00 0.00 0.00 0.01
0.07 0.07 0.02 0.02 0.04 0.06 0.12 0.07 0.11 0.11 0.03 0.00 0.00 0.00 0.00 0.00 0.00 0.00 0.00 0.00 0.00 0.00 0.00 0.00 0.00 0.00 0.00 0.00 0.00 0.00 0.00 0.00 0.00 0.00 0.00 0.00 0.00 0.00 0.00 0.00 0.00 0.00 0.04 0.20
0.10 0.04 0.01 0.01 0.06 0.18 0.19 0.05 0.07 0.09 0.07 0.05 0.04 0.03 0.02 0.01 0.00 0.00 0.00 0.00 0.00 0.00 0.00 0.00 0.00 0.00 0.00 0.00 0.00 0.03 0.02 0.01 0.00 0.00 0.00 0.00 0.00 0.00 0.01 0.05 0.17 0.35 0.53 0.78
MSLP
1003.97 1004.77 1004.37 1004.61 1004.90 1004.81 1004.62 1004.29 1003.63 1003.26 1002.47 1002.59 1003.05 1003.41 1003.84 1004.49 1005.17 1005.71 1006.25 1006.59 1006.98 1007.26 1007.17 1008.05 1008.51 1009.05 1009.79 1010.63 1011.30 1011.83 1012.45 1012.86 1013.55 1014.17 1014.66 1015.17 1015.34 1015.33 1015.28 1015.25 1015.20 1015.42 1015.75 1016.11
1004.01 1003.36 1003.71 1004.10 1004.37 1004.52 1004.39 1004.19 1003.45 1002.96 1002.90 1002.95 1003.18 1003.47 1003.51 1004.10 1003.69 1003.79 1004.64 1005.39 1005.70 1006.43 1007.24 1007.49 1007.95 1008.51 1008.86 1009.36 1010.18 1011.07 1011.58 1012.11 1012.64 1013.15 1013.65 1014.18 1014.51 1014.65 1014.77 1014.81 1015.01 1015.26 1015.64 1015.91
1002.77 1002.64 1003.04 1003.41 1003.63 1003.94 1003.65 1003.60 1003.01 1002.99 1003.09 1002.95 1003.23 1003.64 1003.78 1003.78 1004.29 1004.67 1004.77 1004.59 1005.01 1005.25 1005.67 1006.34 1006.85 1007.36 1008.06 1008.85 1009.26 1009.80 1010.50 1011.24 1011.91 1012.44 1013.11 1013.84 1014.24 1014.46 1014.70 1014.85 1015.01 1015.11 1015.21 1015.47
1002.33 1002.01 1002.35 1002.67 1002.81 1003.12 1003.18 1002.68 1003.05 1003.24 1003.53 1003.74 1003.27 1004.00 1003.69 1003.70 1003.74 1003.74 1003.94 1004.09 1004.22 1004.63 1005.00 1005.48 1006.04 1006.55 1006.90 1007.54 1008.37 1009.01 1009.71 1010.46 1011.25 1011.89 1012.44 1012.92 1013.35 1013.84 1014.11 1014.33 1014.47 1014.70 1014.79 1015.09
1000.84 1000.88 1001.42 1001.61 1001.29 1002.24 1002.16 1002.62 1003.05 1003.49 1003.99 1004.20 1003.79 1004.23 1003.04 1002.97 1003.47 1003.24 1002.95 1002.94 1003.17 1003.52 1004.09 1004.26 1004.70 1005.10 1005.51 1006.48 1007.40 1008.17 1008.92 1009.64 1010.37 1011.13 1011.55 1012.23 1012.75 1012.94 1013.35 1013.81 1014.16 1014.36 1014.65 1014.73
1000.09 999.95 1000.23 1000.27 1000.96 1001.50 1002.15 1002.93 1003.55 1003.87 1004.53 1004.43 1003.23 1003.77 1002.31 1002.25 1001.68 1001.48 1001.64 1001.66 1001.64 1002.31 1002.71 1003.18 1003.31 1004.29 1005.17 1005.91 1006.67 1007.37 1008.14 1008.82 1009.55 1010.28 1010.78 1011.37 1011.94 1012.52 1013.17 1013.68 1014.04 1014.23 1014.41 1014.68
999.98 999.78 999.42 999.48 1000.60 1001.20 1001.87 1003.46 1004.95 1005.15 1005.00 1002.98 1002.72 1002.82 1000.80 999.77 999.65 999.49 999.83 999.76 999.89 1000.38 1001.20 1001.92 1002.85 1003.57 1004.25 1005.09 1005.88 1006.69 1007.49 1008.10 1008.77 1009.47 1010.09 1010.59 1011.07 1011.66 1012.25 1012.95 1013.46 1013.91 1014.27 1014.50
999.71 999.73 999.03 998.69 999.05 1000.21 1001.31 1002.28 1003.66 1004.51 1004.45 1003.36 1002.51 1000.68 998.58 998.26 997.82 997.81 997.90 997.70 998.59 999.52 1000.03 1000.62 1000.95 1001.74 1002.64 1003.60 1004.65 1005.50 1006.41 1007.17 1007.95 1008.62 1009.23 1009.78 1010.31 1010.91 1011.36 1012.09 1012.64 1013.07 1013.43 1013.75
999.42 998.99 997.86 997.52 998.08 998.92 1000.40 1001.34 1002.01 1003.64 1004.22 1003.61 1001.59 999.36 997.95 997.44 997.40 997.23 997.49 997.82 997.91 998.07 998.64 998.95 999.66 1000.28 1001.19 1002.40 1003.24 1004.16 1005.19 1006.17 1006.99 1007.60 1008.33 1009.06 1009.60 1010.18 1010.76 1011.25 1011.76 1012.27 1012.63 1013.10
999.02 999.00 997.73 997.10 997.47 998.11 998.50 1000.19 1001.83 1003.07 1003.43 1002.84 1001.07 999.20 997.76 997.17 997.15 996.84 996.68 996.85 996.86 997.06 997.24 997.37 998.14 998.96 999.93 1000.81 1001.70 1003.04 1003.97 1004.70 1005.55 1006.50 1007.30 1008.07 1008.69 1009.30 1009.92 1010.59 1011.12 1011.51 1011.98 1012.50
1000.06 999.65 998.39 997.36 997.09 997.24 998.21 998.85 1000.05 1001.01 1001.60 1001.46 1000.33 997.74 996.58 996.77 996.47 996.45 996.23 995.96 995.88 995.98 995.85 996.18 996.83 997.56 998.72 999.87 1001.12 1002.05 1003.06 1004.07 1004.99 1005.84 1006.48 1007.23 1007.97 1008.65 1009.35 1009.80 1010.31 1010.67 1011.32 1011.94
1002.06 1000.80 999.34 997.73 996.63 996.11 996.92 997.72 999.01 999.84 1000.02 999.53 998.67 996.74 995.03 995.08 995.14 995.72 995.44 995.27 994.85 994.66 994.55 994.83 995.63 996.44 997.87 998.94 1000.00 1001.04 1001.99 1002.92 1003.61 1004.49 1005.44 1006.15 1006.90 1007.80 1008.43 1008.95 1009.43 1009.92 1010.47 1011.15
1004.33 1002.52 1001.11 999.05 997.87 996.83 996.61 996.67 997.05 997.54 998.19 997.42 997.62 996.04 995.04 995.16 995.40 995.12 995.13 994.61 994.34 994.09 994.18 994.58 995.41 996.14 996.67 997.78 998.88 999.99 1000.82 1001.47 1002.61 1003.67 1004.40 1005.32 1005.99 1006.76 1007.30 1007.79 1008.39 1009.06 1009.62 1010.26
1005.17 1004.35 1003.01 1001.12 999.33 997.82 996.88 996.11 995.80 996.13 995.93 996.13 995.01 996.02 995.29 994.97 994.93 994.76 994.58 994.45 994.09 993.68 993.54 993.91 994.58 995.28 996.03 996.75 997.64 998.67 999.55 1000.49 1001.59 1002.56 1003.32 1004.14 1004.75 1005.36 1006.06 1006.69 1007.45 1008.09 1008.59 1009.33
1006.54 1005.99 1004.15 1002.29 1000.75 998.37 997.07 995.98 994.68 994.10 994.01 994.02 994.62 994.84 994.98 994.37 994.22 994.43 993.89 994.13 994.16 993.92 993.66 993.38 993.73 994.22 995.20 996.42 997.17 997.88 998.66 999.62 1000.43 1001.47 1002.29 1002.75 1003.49 1004.20 1005.12 1005.81 1006.36 1007.04 1007.80 1008.22
1007.38 1006.57 1005.05 1002.85 1000.61 998.55 996.50 994.66 993.04 991.87 992.54 993.29 993.49 993.62 993.32 993.08 993.11 993.55 993.27 993.13 993.18 993.08 992.96 992.83 992.86 993.53 993.99 994.47 995.62 996.70 997.86 998.56 999.40 1000.27 1000.77 1001.80 1002.61 1003.25 1003.96 1004.83 1005.49 1006.18 1006.74 1007.31
1008.20 1007.14 1005.96 1003.52 1001.29 999.20 995.97 990.90 992.05 991.89 991.61 991.75 992.06 992.50 992.71 992.92 992.91 992.90 992.44 992.42 992.41 992.19 991.93 992.22 991.96 992.06 992.43 993.16 993.91 995.09 995.85 997.15 998.47 999.02 999.91 1000.76 1001.52 1002.34 1003.06 1004.05 1004.87 1005.28 1005.77 1006.40
1007.78 1007.51 1006.46 1004.46 1001.90 998.83 991.84 991.60 991.17 991.23 991.09 991.08 991.00 991.34 991.64 991.60 991.24 991.25 990.98 991.15 991.55 991.28 991.43 991.31 991.54 991.75 991.86 992.08 992.98 993.43 995.08 996.15 997.05 998.10 999.08 999.95 1000.55 1001.16 1002.05 1002.93 1003.54 1004.27 1004.85 1005.18
1006.50 1006.66 1005.96 1004.71 1002.06 997.70 994.16 992.66 991.60 990.88 990.72 990.75 990.49 990.57 990.83 991.04 991.19 990.92 990.69 990.77 990.79 990.34 990.00 990.19 990.26 990.63 991.05 991.47 992.06 993.43 994.49 995.22 996.19 996.78 997.69 998.53 999.12 999.86 1000.76 1001.52 1002.08 1003.11 1004.15 1004.68
1004.63 1004.79 1004.62 1003.67 1001.78 998.46 995.33 994.04 993.15 991.79 989.74 988.92 989.32 989.68 990.41 991.07 991.31 991.01 990.35 990.20 990.22 990.15 990.18 990.06 990.06 990.30 990.53 991.08 992.02 993.12 993.80 994.51 995.16 995.56 996.05 996.82 997.66 998.80 999.49 999.93 1000.88 1001.85 1002.70 1003.29
1004.71 1005.05 1003.96 1003.36 1001.61 998.37 996.10 994.39 992.96 993.09 990.45 989.44 989.20 989.40 990.38 990.72 989.98 989.79 990.03 990.33 990.26 990.27 990.56 990.35 990.54 990.75 990.63 990.87 991.65 992.19 992.85 993.39 993.23 994.09 995.03 996.18 996.97 997.69 998.31 999.28 1000.22 1000.91 1001.61 1002.57
1002.44 1002.37 1002.43 1002.74 1001.26 999.39 996.79 995.18 996.07 994.89 992.33 990.36 988.85 989.01 989.71 990.06 990.42 990.47 990.70 990.90 990.83 990.71 991.12 991.40 991.29 991.14 991.04 991.26 991.61 991.97 992.44 991.78 992.58 993.63 994.51 995.17 995.83 996.66 997.68 998.57 999.63 1000.22 1001.12 1001.97
1001.82 1000.33 1000.23 1000.09 999.23 997.62 997.12 997.16 996.31 995.24 993.68 992.00 989.09 989.63 989.78 990.43 991.01 991.26 991.63 991.48 991.52 991.57 991.72 991.93 992.28 992.84 992.64 992.37 992.50 992.61 991.62 991.53 992.16 993.15 993.58 993.88 994.73 995.68 996.51 997.40 998.16 999.88 1000.38 1001.32
1000.88 999.60 999.33 998.67 998.00 997.98 996.73 996.59 996.42 995.58 994.20 992.83 991.72 990.64 991.33 991.45 991.93 992.34 992.33 992.23 992.23 992.25 992.13 992.12 992.12 992.74 993.30 993.29 992.92 992.96 992.71 992.76 993.25 993.19 992.79 993.10 993.78 994.74 995.89 997.30 998.45 999.48 1000.60 1000.53
1000.81 999.30 998.38 997.88 997.83 997.23 996.25 996.81 996.91 996.09 994.68 993.67 993.25 992.87 993.17 993.15 993.59 993.76 994.01 993.84 993.72 993.65 993.55 993.25 993.45 993.63 993.54 993.57 993.67 993.76 993.64 992.99 992.87 993.11 993.45 993.80 993.72 994.78 996.29 997.49 997.81 998.52 999.26 999.65
999.78 998.29 998.02 997.27 997.36 997.20 997.40 998.75 998.04 997.06 995.56 994.85 994.67 994.30 994.33 994.01 994.21 994.31 994.33 994.57 994.42 994.43 994.51 994.42 994.38 994.30 994.36 994.51 994.42 994.31 994.21 993.94 994.02 993.73 993.51 993.96 995.34 995.29 996.86 998.11 999.05 998.88 999.04 1000.77
Thickness
5782 5764 5756 5772 5774 5782 5785 5782 5781 5793 5816 5809 5800 5799 5806 5816 5817 5813 5810 5808 5807 5807 5814 5813 5813 5813 5811 5806 5801 5798 5794 5795 5792 5786 5783 5781 5781 5782 5784 5786 5787 5786 5783 5780
5768 5767 5782 5786 5781 5779 5778 5774 5780 5798 5809 5805 5798 5797 5808 5811 5822 5829 5822 5816 5816 5815 5812 5814 5815 5816 5817 5816 5812 5805 5802 5801 5799 5797 5794 5790 5788 5789 5790 5789 5788 5786 5784 5781
5771 5780 5787 5783 5779 5773 5775 5771 5785 5786 5800 5806 5794 5786 5792 5808 5815 5820 5820 5824 5823 5822 5823 5821 5821 5823 5822 5819 5820 5817 5812 5808 5804 5802 5798 5792 5791 5790 5788 5787 5787 5787 5785 5783
5770 5789 5784 5775 5773 5777 5755 5795 5793 5791 5780 5755 5795 5744 5780 5794 5805 5816 5819 5821 5824 5825 5829 5830 5825 5826 5830 5829 5827 5824 5819 5813 5808 5806 5802 5799 5794 5790 5790 5790 5792 5790 5788 5785
5777 5783 5780 5773 5788 5784 5786 5799 5791 5789 5773 5769 5773 5752 5772 5795 5788 5807 5822 5828 5832 5834 5834 5836 5836 5837 5840 5837 5832 5829 5823 5818 5814 5809 5807 5802 5798 5799 5796 5794 5792 5791 5790 5787
5787 5800 5792 5789 5793 5792 5799 5788 5780 5777 5757 5726 5776 5755 5774 5780 5803 5818 5827 5837 5842 5842 5843 5846 5852 5846 5841 5840 5836 5833 5827 5822 5819 5813 5810 5806 5803 5797 5793 5791 5790 5790 5789 5787
5775 5781 5795 5800 5777 5782 5779 5749 5715 5713 5715 5734 5776 5753 5792 5812 5828 5837 5836 5846 5856 5857 5853 5851 5847 5845 5844 5841 5838 5835 5829 5824 5822 5817 5813 5810 5807 5803 5799 5796 5793 5790 5788 5786
5745 5740 5781 5798 5788 5773 5764 5758 5708 5696 5703 5740 5767 5748 5797 5840 5848 5854 5860 5865 5864 5859 5861 5860 5862 5857 5854 5850 5844 5840 5833 5827 5824 5820 5816 5814 5811 5807 5805 5802 5798 5796 5793 5790
5742 5751 5797 5802 5802 5792 5768 5746 5777 5738 5737 5722 5748 5784 5814 5835 5838 5847 5848 5853 5858 5866 5868 5870 5869 5867 5863 5856 5851 5847 5839 5833 5827 5824 5820 5815 5812 5809 5806 5805 5804 5800 5797 5793
5759 5741 5778 5795 5795 5786 5779 5779 5747 5713 5712 5713 5736 5759 5777 5812 5831 5840 5849 5852 5863 5868 5874 5880 5878 5876 5872 5868 5862 5853 5847 5841 5836 5829 5824 5818 5814 5811 5808 5805 5803 5802 5798 5795
5748 5743 5765 5777 5761 5773 5768 5761 5756 5747 5729 5730 5724 5765 5817 5818 5832 5838 5848 5861 5867 5869 5879 5883 5885 5885 5879 5873 5862 5856 5850 5843 5837 5832 5827 5821 5815 5811 5807 5805 5805 5805 5800 5796
5716 5717 5742 5756 5784 5802 5786 5775 5753 5729 5739 5749 5768 5765 5838 5839 5847 5845 5854 5861 5874 5881 5886 5889 5890 5889 5879 5874 5867 5860 5855 5848 5845 5840 5833 5827 5821 5813 5808 5805 5806 5807 5803 5800
5683 5689 5709 5729 5752 5765 5755 5773 5781 5777 5759 5763 5747 5765 5830 5837 5836 5845 5847 5860 5868 5879 5884 5885 5878 5879 5881 5877 5872 5865 5861 5857 5850 5843 5838 5830 5824 5816 5811 5810 5810 5809 5807 5803
5667 5666 5685 5701 5723 5745 5741 5762 5777 5775 5756 5770 5777 5782 5815 5827 5829 5838 5846 5858 5864 5872 5880 5881 5877 5877 5878 5877 5876 5871 5867 5862 5854 5848 5843 5835 5831 5825 5819 5816 5813 5812 5812 5806
5638 5638 5665 5688 5700 5723 5736 5747 5774 5765 5780 5770 5793 5776 5800 5824 5829 5835 5848 5851 5853 5859 5870 5878 5879 5880 5876 5870 5871 5872 5869 5864 5859 5851 5846 5844 5840 5835 5826 5822 5820 5816 5813 5811
5614 5626 5640 5666 5700 5718 5726 5751 5774 5789 5787 5779 5790 5778 5815 5839 5842 5838 5844 5850 5855 5859 5866 5874 5881 5878 5880 5884 5874 5873 5869 5867 5863 5855 5854 5849 5844 5839 5834 5827 5823 5819 5817 5814
5594 5606 5616 5635 5669 5683 5706 5769 5771 5777 5785 5790 5775 5802 5814 5819 5826 5833 5842 5846 5852 5860 5870 5871 5880 5885 5888 5887 5884 5876 5878 5873 5864 5861 5857 5852 5847 5841 5837 5830 5822 5820 5819 5816
5581 5585 5597 5609 5639 5655 5761 5782 5785 5776 5783 5786 5798 5806 5813 5823 5841 5847 5853 5855 5854 5860 5866 5875 5876 5879 5887 5893 5891 5891 5880 5873 5868 5861 5856 5853 5849 5845 5839 5832 5828 5823 5820 5819
5577 5581 5583 5596 5617 5673 5729 5754 5766 5762 5767 5787 5796 5807 5815 5823 5832 5836 5849 5853 5856 5865 5873 5882 5888 5889 5887 5889 5893 5884 5875 5873 5867 5864 5860 5857 5855 5849 5843 5836 5834 5828 5818 5815
5572 5580 5589 5594 5607 5638 5706 5721 5737 5758 5757 5804 5806 5806 5808 5808 5791 5820 5849 5857 5860 5864 5869 5876 5882 5885 5885 5886 5884 5876 5871 5868 5866 5868 5867 5865 5860 5850 5846 5845 5838 5832 5826 5821
5544 5545 5559 5582 5598 5639 5686 5712 5734 5715 5764 5798 5805 5809 5802 5801 5821 5837 5845 5851 5858 5858 5859 5867 5868 5871 5878 5880 5878 5874 5871 5868 5879 5876 5870 5861 5856 5851 5849 5843 5836 5831 5826 5819
5555 5560 5558 5578 5592 5611 5678 5705 5693 5715 5750 5784 5805 5810 5809 5814 5818 5824 5833 5837 5842 5847 5849 5852 5856 5860 5867 5871 5869 5865 5862 5879 5876 5869 5863 5858 5856 5852 5845 5838 5831 5827 5820 5812
5540 5567 5576 5592 5616 5659 5676 5685 5699 5717 5735 5760 5800 5802 5810 5809 5810 5814 5815 5825 5830 5833 5835 5838 5838 5835 5840 5847 5849 5848 5864 5872 5868 5860 5860 5860 5852 5847 5843 5834 5831 5816 5815 5806
5545 5569 5577 5598 5625 5647 5674 5689 5699 5714 5730 5749 5768 5786 5791 5794 5796 5798 5804 5810 5818 5821 5825 5829 5832 5829 5827 5832 5837 5839 5845 5846 5843 5846 5854 5854 5848 5844 5840 5830 5819 5809 5801 5803
5540 5563 5583 5601 5621 5643 5670 5679 5690 5703 5724 5739 5748 5757 5762 5770 5770 5777 5781 5788 5795 5800 5803 5808 5809 5810 5813 5815 5817 5819 5823 5831 5834 5835 5833 5831 5835 5829 5818 5810 5816 5812 5803 5798
5543 5568 5579 5599 5623 5638 5655 5655 5675 5687 5705 5717 5724 5733 5742 5754 5758 5765 5770 5773 5779 5783 5784 5787 5789 5792 5793 5793 5795 5799 5801 5804 5806 5812 5813 5808 5798 5807 5797 5791 5788 5789 5789 5770